March 27-28, 2025
|
Washington University - St. Louis, MO
ICON KEY: NCAA DII NAIA A NAIA B NJCAA DI NJCAA DIII NCCAA HCAC NCAC

Women's 5000 Meters

Top↑
PL NAME YEAR TEAM TIME TIME
1 Paige Mullen SO-2 Pittsburg St. 16:11.62 13:45.88
2 Kaylee Beyer   Unattached 16:17.67 11:24.37
3 Mikayla Reed   Unattached 16:28.45 19:46.14
4 Ella Bakken SR-4 Augustana (S.D.) 16:41.44 13:01.13
5 Renate Toldo Senior Unattached 16:42.52 21:43.28
6 Abbi Steiner SO-2 Wis.-Parkside 16:44.58 13:23.67
7 Sarah May SR-4 Lewis 16:45.10 19:15.87
8 Isabel Olson SR-4 Colorado College 16:45.58 14:24.80
9 Grace Jostock SR-4 Loyola (Ill.) 16:51.11 18:32.23
10 Hannah Gibson SO-2 Pittsburg St. 16:52.18 20:44.99
11 Peyton Steffen JR-3 Central College 16:53.39 18:34.73
12 Breanna Burak FR-1 Drake 16:54.49 21:48.70
13 Carly Spletzer JR-3 Ball State 16:54.61 14:32.57
14 Anna Watson SR-4 U. of Chicago 16:56.52 20:29.99
15 Ashlyn Hillyard SR-4 South Dakota St. 16:56.87 13:33.50
16 Ali Gillooly JR-3 Loyola (Ill.) 16:57.84 17:18.20
17 Kate Guderjan JR-3 Lewis 16:58.86 21:44.14
18 Olivia Harp SR-4 Tampa 16:59.83 17:30.43
19 Hannah Moore FR-1 Butler 17:01.29 17:21.72
20 Maggie Reed JR-3 Illinois State 17:01.42 18:43.57
21 Sydney Rankin SR-4 Colorado College 17:01.82 12:25.93
22 Kylie Anderson JR-3 Winona State 17:02.31 16:11.20
23 Ellie Hall SO-2 Southern Indiana 17:02.72 18:14.31
24 Elizabeth Barrett JR-3 Indiana Wesleyan 17:05.23 14:31.45
25 Lauren Walda JR-3 St. Olaf 17:05.92 12:59.70
26 Nora Holmes JR-3 U. of Chicago 17:06.07 20:21.03
27 Mary Edwards SO-2 Lewis 17:06.51 21:12.88
28 Emma Hoins SR-4 Northern Iowa 17:07.81 15:35.31
29 Skyler Balzer FR-1 Bradley 17:07.94 19:21.58
30 Matilda Laidlaw FR-1 Tulsa 17:07.99 21:35.27
31 Mya Kizer JR-3 South Dakota St. 17:11.38 14:05.74
32 Lorna Rae Pierce FR-1 Pittsburg St. 17:14.21 21:32.77
33 Josie Tyrrell SO-2 St. Mary (Kan.) 17:14.60 16:53.91
34 Sophia Rhein SO-2 Michigan Tech 17:17.07 19:52.63
35 Emma Gonzalez JR-3 South Dakota St. 17:18.14 12:06.70
36 Sidney Swick JR-3 Trine 17:19.52 16:48.34
37 Lauren Iagnemma JR-3 Case Western 17:19.76 16:38.17
38 Carissa Hamilton SO-2 Bradley 17:28.67 18:10.62
39 Amy Morefield FR-1 Tulsa 17:28.81 17:39.30
40 Addy Parrott SR-4 Central College 17:29.60 17:08.61
41 Cameron Hough SR-4 Southern Indiana 17:31.61 14:01.29
42 Shelby Christman SR-4 Ball State 17:32.04 18:35.17
43 Maddie Haldiman SO-2 Arkansas State 17:32.68 15:57.94
44 Lilah Genel SO-2 Missouri Southern 17:33.62 20:11.67
45 Jenari Lopez 5 Unattached 17:34.03 15:59.17
46 Isabella Frost SO-2 Missouri Southern 17:35.76 14:04.61
47 Mercy Lomuria FR-1 West Alabama 17:36.65 12:30.23
48 Kylie Cline FR-1 Butler 17:36.93 22:22.31
49 Melody Ochana SR-4 Northern Iowa 17:36.97 14:37.29
50 Jayna Gunter SO-2 Missouri Southern 17:37.42 15:09.39
51 Audrey Comastri SR-4 Southern Indiana 17:37.80 19:13.01
52 Addi Dewey JR-3 Indiana Wesleyan 17:38.42 12:42.07
53 Hanna Brock SR-4 Ferris State 17:40.92 16:58.49
54 Abbey Brackenbury   Unattached 17:45.59 19:53.46
55 Julie Smith SO-2 IU Indianapolis 17:45.72 22:54.78
56 Mckenna Mazeski SO-2 Butler 17:46.74 17:57.41
57 Leah Klapatauskas FR-1 Northern Iowa 17:47.65 13:20.74
58 Emma Moore JR-3 Cornerstone 17:48.62 21:11.66
59 Grace Reed SO-2 Florida Southern 17:49.27 16:34.43
60 Lauren Eftink FR-1 SE Missouri 17:50.62 15:52.86
61 Allison Dietz SO-2 Ohio Wesleyan 17:53.21 15:44.43
62 Kayla Vogelsang JR-3 SE Missouri 17:53.86 13:36.14
63 Eleanor Young JR-3 Trine 17:54.67 16:28.70
64 Hailey Nelson JR-3 Missouri Southern 17:55.06 20:36.32
65 Hailey Gerard JR-3 William Woods 17:57.27 16:31.09
66 Clara Gillen FR-1 Saint Louis 17:57.44 20:39.06
67 Viviana Sanfilippo JR-3 Illinois State 17:58.31 15:59.70
68 Savannah Lesher JR-3 Maryville (Mo.) 17:58.94 19:25.26
69 Devyn O'Daniel FR-1 Arkansas State 17:59.05 17:37.47
70 Molly DeMarzo SO-2 Tampa 17:59.33 12:35.54
71 Taylor Guthrie JR-3 Tampa 17:59.40 22:18.46
72 Amanda Johnson   Wisconsin Runner 18:00.15 15:18.13
73 Kinze Shea FR-1 SIU Edwardsville 18:00.66 16:12.60
74 Cora Stimpson   Unattached 18:03.05 19:08.04
75 Emma Dubie SO-2 Illinois-Chicago 18:05.11 21:42.14
76 Zoe Seward SO-2 Southern Indiana 18:05.28 21:20.63
77 Sofia Carlson SR-4 St. Olaf 18:06.11 22:26.78
78 Ashley Kachurik SR-4 Elmhurst 18:07.00 17:12.65
79 Layla Fliege JR-3 SE Missouri 18:09.39 19:03.86
80 Samantha Roth JR-3 Ohio Northern 18:09.47 18:20.37
81 Mercedes Sarver   Mastodon XC/TF Alumni 18:10.62 15:05.22
82 Becca Diddia SR-4 Loras 18:11.68 20:33.60
83 Marlena Stoklosa SO-2 Lewis 18:12.15 22:56.11
84 AnnaSophia Gower SO-2 Ohio Northern 18:12.51 20:23.62
85 Lily Monnett SR-4 DePauw 18:14.44 13:29.89
86 Alexis Tracy JR-3 Saginaw Valley 18:14.64 14:35.72
87 McKenna Downing JR-3 Ohio Wesleyan 18:15.57 16:47.93
88 Tori Gerber SR-4 Viterbo 18:16.75 19:22.56
89 Zoe Ward SO-2 Ohio Wesleyan 18:18.79 22:42.50
90 Lucy Barker FR-1 Alabama-Huntsville 18:20.07 23:06.09
91 Kyra Flesvig JR-3 Lewis 18:21.79 14:41.44
92 Mary Richmond FR-1 Tampa 18:22.02 18:55.08
93 Ava Power FR-1 Missouri Southern 18:23.36 23:43.34
94 Kendall Mann SR-4 DePauw 18:24.21 14:21.29
95 Jenna Sweeney FR-1 Saginaw Valley 18:25.48 15:28.61
96 Addison Applegate FR-1 Southern Indiana 18:25.52 14:22.31
97 Meredith Campbell FR-1 Morehead State 18:25.88 21:00.71
98 Kylie Smith SR-4 Carthage 18:28.18 23:38.47
99 Kate Madsen SR-4 St. Mary (Kan.) 18:29.39 19:58.15
100 Josslyn Gaona FR-1 Illinois-Springfield 18:31.28 19:37.96
101 Cordelia Hoover FR-1 SE Missouri 18:31.29 17:46.84
102 Hannah Parker SR-4 Trine 18:31.92 16:40.73
103 Sophie Cotts SO-2 Ohio Wesleyan 18:32.13 13:42.98
104 Irene Williams JR-3 Washington U. 18:32.16 17:03.19
105 Sarah Carr   Unattached 18:32.25 18:54.50
106 Sofia Sheldon FR-1 Washington U. 18:32.42 19:39.17
107 Renee Ballard FR-1 Saint Louis 18:32.68 13:54.51
108 Isabela Garcia SO-2 Illinois-Chicago 18:32.86 12:59.01
109 Cadence Traylor SO-2 Indiana Wesleyan 18:35.95 15:15.08
110 Emily Capper JR-3 Marquette 18:36.20 17:06.91
111 Emma Neal JR-3 Maryville (Mo.) 18:36.60 16:00.28
112 Rachel Hockenberry JR-3 Florida Southern 18:37.34 21:02.60
113 Carina Alanis JR-3 IU Indianapolis 18:37.61 13:58.21
114 Jordan Kantola JR-3 Saint Louis 18:38.96 23:18.70
115 Aylin Vega SR-4 Alabama-Huntsville 18:39.36 24:03.98
116 Katie Morrison SO-2 Indiana Wesleyan 18:40.21 22:57.86
117 Zoe Nelson JR-3 Missouri Southern 18:40.68 14:00.51
118 Abigail White JR-3 St. Mary (Kan.) 18:40.83 18:52.04
119 Ashlyn Kephart SO-2 Indiana Wesleyan 18:41.24 13:27.30
120 Lillian Buzani SR-4 Illinois-Springfield 18:42.58 14:01.94
121 Gracen Glover JR-3 St. Mary (Kan.) 18:43.99 18:55.23
122 Chesnee Miller FR-1 Manchester 18:44.98 18:33.73
123 Grace Moeller JR-3 St. Olaf 18:45.51 20:49.32
124 Grace Dubsky FR-1 Trine 18:45.74 16:08.14
125 Maddie Marschel SO-2 Maryville (Mo.) 18:48.65 14:17.78
126 Marissa Roggensack SO-2 Illinois-Springfield 18:49.25 13:44.36
127 Ella Chomic FR-1 Ohio Wesleyan 18:50.92 18:39.61
128 Jadie Chavez FR-1 Illinois-Chicago 18:51.54 17:21.02
129 Maddy Lee FR-1 Washington U. 18:51.83 14:08.88
130 Mya Slavin FR-1 Saint Mary's (Minn.) 18:52.44 23:12.91
131 Ella Colclesser FR-1 IU Indianapolis 18:52.83 24:10.03
132 Dyannara Franco FR-1 St. Francis (Ill.) 18:52.86 20:46.15
133 Lex Wilhelm SR-4 Indianapolis 18:53.14 22:39.77
134 Molly Roberts JR-3 Elmhurst 18:53.99 13:59.16
135 Rylee Stephany JR-3 Manchester 18:54.15 15:30.01
136 Emma Leahy JR-3 Illinois-Springfield 18:54.31 15:07.45
137 Autumn Egleston FR-1 Murray State 18:55.28 15:53.64
138 Danielle Mudd FR-1 Tennessee-Martin 18:55.44 15:31.06
139 Audrey Grimm SR-4 Marquette 18:56.09 21:57.87
140 Avery Nason SO-2 Washington U. 18:56.55 20:50.21
141 Krysta Stanko SO-2 Governors State 18:57.40 14:58.55
142 Sally Carrington FR-1 Washington U. 18:58.19 22:23.07
143 Hannah Robbins SO-2 IU Indianapolis 18:59.14 19:33.32
144 Sofia Wendell FR-1 Washburn 19:02.27 24:10.69
145 Sadie Kibelstis FR-1 Marquette 19:04.32 20:58.76
146 Macy Iyer JR-3 Washington U. 19:05.01 18:42.11
147 Taylor Allen SO-2 Morehead State 19:07.63 20:39.44
148 Sophey Pope JR-3 Arkansas State 19:07.70 21:36.90
149 Kaylee O'Sullivan FR-1 Governors State 19:07.73 22:22.85
150 Madison Perez FR-1 Loyola (Ill.) 19:09.97 14:45.48
151 Lexi Minard FR-1 St. Ambrose 19:11.12 23:47.39
152 Hannah Haag SO-2 Olivet Nazarene 19:12.53 22:05.41
153 Nicole Vollrath FR-1 St. Francis (Ill.) 19:12.62 23:49.25
154 Riley Linville FR-1 Southern Illinois 19:12.74 21:42.60
155 N'Dya Fields JR-3 Aurora 19:14.09 15:23.28
156 Emilee Franklin FR-1 SIU Edwardsville 19:14.71 13:51.40
157 Alayna Sparr JR-3 SE Missouri 19:16.67 18:53.54
158 Jessica Durkee JR-3 Ferris State 19:17.62 24:53.33
159 Sarah Williams FR-1 Truman 19:19.86 21:04.25
160 Patricia Black   Unattached 19:20.07 23:58.49
161 Eden Norris JR-3 Indiana Wesleyan 19:22.51 17:26.26
162 Lauren Klein SR-4 Northern Iowa 19:23.53 17:50.45
163 Christiana Britian SO-2 Morehead State 19:23.56 16:40.67
164 Kinsie Jacques FR-1 Saginaw Valley 19:24.10 24:50.05
165 Josie Kooima FR-1 Wis.-Parkside 19:25.59 15:32.48
166 Kylie Sailor FR-1 Cornerstone 19:25.86 16:19.33
167 Riley Britton FR-1 Washburn 19:26.05 16:42.81
168 Hallie Mosier SO-2 Murray State 19:26.85 24:06.90
169 Chloe Krueger SO-2 DePauw 19:26.97 18:40.30
170 Arabella England FR-1 St. Olaf 19:28.86 16:10.16
171 Emily Plouff JR-3 Ferris State 19:29.76 22:01.83
172 Kira Larner SO-2 Washington U. 19:31.65 20:18.52
173 Mia Nutile SO-2 Marquette 19:31.86 21:29.05
174 Emilia Diaz SO-2 St. Mary (Kan.) 19:32.94 20:43.32
175 Lili Lehnst FR-1 Saginaw Valley 19:34.17 20:09.40
176 Avery Kittl SO-2 Governors State 19:35.13 17:25.87
177 Julia Whorton FR-1 Missouri Baptist 19:37.85 17:16.51
178 Alex Li FR-1 Michigan Tech 19:39.00 15:54.99
179 Gianna Konen SR-4 Marquette 19:40.95 24:24.38
180 Katy Menke SO-2 Washburn 19:41.25 21:51.19
181 Ella Bashor SR-4 Franklin 19:46.79 17:24.38
182 Kali Gaden SO-2 Illinois-Springfield 19:48.97 23:34.88
183 Lucy Horne FR-1 Alabama-Huntsville 19:51.33 24:37.25
184 Emma Jasutis SO-2 Aurora 19:52.78 25:02.91
185 Grace Riddle FR-1 Michigan Tech 19:52.81 15:30.40
186 Jolie Evans SO-2 Washburn 19:53.50 21:52.85
187 Jazmin Diaz SO-2 Illinois-Chicago 19:54.52 21:18.14
188 Addy Smith JR-3 St. Ambrose 19:55.16 20:54.92
189 Annika Sytsma SO-2 Hope 19:55.28 18:31.61
190 Allison Hein JR-3 St. Ambrose 19:56.75 23:44.14
191 Tessa Wohlschlegel FR-1 Ferris State 19:57.29 17:33.62
192 Ella Baldwin SR-4 Indiana Wesleyan 19:57.96 20:33.90
193 Norah Wright FR-1 Illinois-Springfield 19:58.74 17:46.88
194 Ahmira Pickett SO-2 Southern Indiana 19:59.95 25:23.94
195 Elizabeth Cain SO-2 Alabama-Huntsville 20:02.30 17:38.03
196 Cate Gleason SR-4 St. Olaf 20:05.77 21:18.12
197 Lauren Smith SR-4 Olivet Nazarene 20:07.19 21:55.84
198 Gretchen Pfeiffer SR-4 Marquette 20:09.09 23:10.46
199 Micah Peals JR-3 Southern Indiana 20:13.25 24:03.77
200 Abby Anderson FR-1 Lindenwood 20:16.17 16:25.10
201 Camila Mendez SO-2 Governors State 20:16.40 18:51.26
202 Katie Nalley SR-4 Elmhurst 20:17.61 19:53.26
203 Parker Provost JR-3 Southern Indiana 20:20.51 25:13.44
204 Lauren Johnson FR-1 St. Ambrose 20:21.78 18:07.39
205 Alyson Skiles FR-1 Mineral Area College 20:22.02 14:15.42
206 Mara Sweeney JR-3 Ferris State 20:23.15 20:35.39
207 Morgan Pieczynski JR-3 Governors State 20:23.80 17:20.23
208 Amyla Eberhart SO-2 Michigan Tech 20:24.24 21:25.46
209 Amber Fusner FR-1 Southern Indiana 20:24.79 16:44.33
210 Kathryn Cameron FR-1 St. Mary (Kan.) 20:27.08 14:31.23
211 Ava Klaassen FR-1 St. Mary (Kan.) 20:27.13 24:57.10
212 Angelina Tringali SO-2 Trine 20:27.94 17:36.03
213 Isabella Wojciechowski SO-2 Olivet Nazarene 20:29.55 15:34.46
214 Mesa Casper FR-1 St. Mary (Kan.) 20:32.22 19:42.94
215 Maggie Smith FR-1 Southern Indiana 20:41.47 14:29.03
216 Jenna Ramadan JR-3 Lindenwood 20:46.95 17:52.38
217 Morgan Tharp JR-3 DePauw 20:47.15 19:19.85
218 Ava Thomas SO-2 Marquette 20:50.39 14:47.78
219 Kenzie Ross FR-1 Washburn 20:51.32 18:33.68
220 Eva Matteucci FR-1 Washburn 21:02.75 23:09.03
221 Sophie Hummitisch FR-1 Governors State 21:05.74 17:55.88
222 Abby Quinn JR-3 Illinois Wesleyan 21:11.01 17:47.65
223 Adi Fuller SO-2 Vincennes 21:18.51 27:16.50
224 Alexis Hale FR-1 Vincennes 21:20.19 23:28.21
225 Mary Momper Senior Unattached 21:21.91 20:05.00
226 Carlie Woolm SO-2 St. Ambrose 21:22.13 24:08.81
227 Chloe Aubuschon FR-1 Greenville 21:24.16 18:50.06
228 Rachel Homan SO-2 Wisconsin Lutheran 21:26.29 24:39.24
229 Rileigh Fortune SR-4 St. Ambrose 21:33.02 21:20.09
230 Sydney Bonham SO-2 Governors State 21:35.58 20:43.76
231 Louisa Felgenhauer SR-4 Wisconsin Lutheran 21:37.87 20:32.98
232 Mattea Wuest FR-1 Wis.-Parkside 21:42.64 20:24.49
233 Linnea Gray FR-1 Michigan Tech 21:50.43 16:49.04
234 Allison Lauri FR-1 Governors State 21:57.39 18:39.79
235 Emilia Kadiyala SR-4 Governors State 22:03.73 18:31.94
236 Maggie Von Hatten SR-4 Illinois-Springfield 22:17.85 16:03.26
237 Jinni Jimenez SO-2 Governors State 22:19.90 20:32.71
238 Madison Siergiej FR-1 Governors State 22:25.90 27:22.00
239 Diana Perez SO-2 Governors State 23:22.50 28:17.03
240 Sarah Erickson JR-3 Principia 24:05.35 22:53.09
241 Zoey Losch SO-2 Missouri-St. Louis 24:26.66 20:32.00
242 Liz Rios SR-4 Governors State 24:42.38 29:53.68
243 Karla Luviano SO-2 Governors State 24:46.95 21:48.52
244 Nina Martinez FR-1 Principia 25:24.17 27:56.59
245 Jennifer Tomasic FR-1 Governors State 26:00.04 33:32.46
246 Sophia Perez FR-1 Governors State 28:47.32 37:25.52
  Hannah Wymer JR-3 Principia DNF DNF
  Blair Rexing SR-4 Southern Indiana DNF DNF
  Audrey Boles   SIU Carbondale DNF DNF
  Bordie Denny   SIU Carbondale DNF DNF
  Carmen Solis SO-2 DuPage DNF DNF
  Morgan Gioia SO-2 Lewis DNF DNF
  Kaitlyn Knoche SO-2 St. Ambrose DNF DNF
  Vanessa Thomas SR-4 Unattached DNF DNF
  Kyla Weems SO-2 Missouri Southern DNF DNF
  Ailey Mitchell SR-4 Tulsa DNF DNF
Women's 5000 Meters Section 1
PL NAME YEAR TEAM TIME TIME TIME
156 Emilee Franklin FR-1 SIU Edwardsville 22:31.01 20:00.90 19:14.71
174 Emilia Diaz SO-2 St. Mary (Kan.) 21:06.78 13:41.06 19:32.94
182 Kali Gaden SO-2 Illinois-Springfield 16:26.85 22:35.43 19:48.97
185 Grace Riddle FR-1 Michigan Tech 23:27.52 14:42.68 19:52.81
200 Abby Anderson FR-1 Lindenwood 19:39.69 14:59.97 20:16.17
201 Camila Mendez SO-2 Governors State 16:37.45 14:11.48 20:16.40
202 Katie Nalley SR-4 Elmhurst 18:15.85 20:17.61 20:17.61
204 Lauren Johnson FR-1 St. Ambrose 23:49.49 24:38.36 20:21.78
205 Alyson Skiles FR-1 Mineral Area College 16:29.84 16:17.62 20:22.02
207 Morgan Pieczynski JR-3 Governors State 21:12.76 21:49.47 20:23.80
210 Kathryn Cameron FR-1 St. Mary (Kan.) 18:24.38 17:47.56 20:27.08
211 Ava Klaassen FR-1 St. Mary (Kan.) 19:50.32 17:47.61 20:27.13
214 Mesa Casper FR-1 St. Mary (Kan.) 14:47.20 26:17.25 20:32.22
216 Jenna Ramadan JR-3 Lindenwood 20:59.42 21:24.36 20:46.95
221 Sophie Hummitisch FR-1 Governors State 18:46.51 17:30.57 21:05.74
225 Mary Momper Senior Unattached 24:34.20 17:31.17 21:21.91
226 Carlie Woolm SO-2 St. Ambrose 24:34.45 15:10.32 21:22.13
227 Chloe Aubuschon FR-1 Greenville 15:11.76 25:02.47 21:24.16
228 Rachel Homan SO-2 Wisconsin Lutheran 24:13.51 24:00.65 21:26.29
230 Sydney Bonham SO-2 Governors State 23:45.14 19:38.98 21:35.58
231 Louisa Felgenhauer SR-4 Wisconsin Lutheran 20:45.96 26:36.38 21:37.87
233 Linnea Gray FR-1 Michigan Tech 17:15.24 15:17.30 21:50.43
234 Allison Lauri FR-1 Governors State 24:22.31 25:54.52 21:57.39
235 Emilia Kadiyala SR-4 Governors State 23:09.92 28:14.38 22:03.73
236 Maggie Von Hatten SR-4 Illinois-Springfield 19:23.93 27:12.18 22:17.85
237 Jinni Jimenez SO-2 Governors State 28:35.08 25:54.29 22:19.90
238 Madison Siergiej FR-1 Governors State 24:53.95 21:05.15 22:25.90
239 Diana Perez SO-2 Governors State 28:03.00 28:03.00 23:22.50
240 Sarah Erickson JR-3 Principia 25:03.17 22:53.09 24:05.35
241 Zoey Losch SO-2 Missouri-St. Louis 23:42.66 23:13.33 24:26.66
242 Liz Rios SR-4 Governors State 22:28.97 20:00.73 24:42.38
243 Karla Luviano SO-2 Governors State 21:03.91 31:13.56 24:46.95
244 Nina Martinez FR-1 Principia 22:51.76 23:37.48 25:24.17
245 Jennifer Tomasic FR-1 Governors State 22:52.84 24:57.64 26:00.04
246 Sophia Perez FR-1 Governors State 30:48.24 26:11.87 28:47.32
  Hannah Wymer JR-3 Principia DNF DNF DNF
Women's 5000 Meters Section 2
PL NAME YEAR TEAM TIME TIME TIME
118 Abigail White JR-3 St. Mary (Kan.) 24:05.87 23:09.83 18:40.83
134 Molly Roberts JR-3 Elmhurst 19:05.33 21:10.07 18:53.99
145 Sadie Kibelstis FR-1 Marquette 15:38.35 20:01.54 19:04.32
148 Sophey Pope JR-3 Arkansas State 17:47.37 18:33.27 19:07.70
154 Riley Linville FR-1 Southern Illinois 17:40.52 18:03.58 19:12.74
162 Lauren Klein SR-4 Northern Iowa 15:54.10 19:23.53 19:23.53
169 Chloe Krueger SO-2 DePauw 24:30.39 16:08.59 19:26.97
171 Emily Plouff JR-3 Ferris State 16:34.30 20:04.86 19:29.76
173 Mia Nutile SO-2 Marquette 17:11.24 22:39.36 19:31.86
176 Avery Kittl SO-2 Governors State 22:31.40 24:28.92 19:35.13
177 Julia Whorton FR-1 Missouri Baptist 17:16.51 15:54.06 19:37.85
180 Katy Menke SO-2 Washburn 23:49.32 20:52.13 19:41.25
181 Ella Bashor SR-4 Franklin 19:11.19 22:56.68 19:46.79
184 Emma Jasutis SO-2 Aurora 18:17.36 17:17.72 19:52.78
187 Jazmin Diaz SO-2 Illinois-Chicago 20:30.36 15:31.73 19:54.52
188 Addy Smith JR-3 St. Ambrose 20:42.97 14:32.47 19:55.16
190 Allison Hein JR-3 St. Ambrose 22:20.36 25:19.88 19:56.75
191 Tessa Wohlschlegel FR-1 Ferris State 24:08.72 21:21.10 19:57.29
195 Elizabeth Cain SO-2 Alabama-Huntsville 21:50.51 21:50.51 20:02.30
196 Cate Gleason SR-4 St. Olaf 17:53.14 19:17.54 20:05.77
197 Lauren Smith SR-4 Olivet Nazarene 19:06.83 19:43.05 20:07.19
212 Angelina Tringali SO-2 Trine 25:10.37 21:29.34 20:27.94
217 Morgan Tharp JR-3 DePauw 18:29.97 18:17.50 20:47.15
219 Kenzie Ross FR-1 Washburn 20:13.78 21:16.35 20:51.32
220 Eva Matteucci FR-1 Washburn 17:53.34 19:21.73 21:02.75
222 Abby Quinn JR-3 Illinois Wesleyan 23:05.40 26:28.77 21:11.01
224 Alexis Hale FR-1 Vincennes 22:49.81 15:08.94 21:20.19
229 Rileigh Fortune SR-4 St. Ambrose 25:38.70 20:41.30 21:33.02
232 Mattea Wuest FR-1 Wis.-Parkside 24:05.93 19:32.38 21:42.64
  Blair Rexing SR-4 Southern Indiana DNF DNF DNF
Women's 5000 Meters Section 3
PL NAME YEAR TEAM TIME TIME
110 Emily Capper JR-3 Marquette 18:36.20 21:23.63
119 Ashlyn Kephart SO-2 Indiana Wesleyan 18:41.24 17:00.33
124 Grace Dubsky FR-1 Trine 18:45.74 19:08.26
139 Audrey Grimm SR-4 Marquette 18:56.09 20:49.70
144 Sofia Wendell FR-1 Washburn 19:02.27 20:22.23
150 Madison Perez FR-1 Loyola (Ill.) 19:09.97 17:03.48
155 N'Dya Fields JR-3 Aurora 19:14.09 21:09.50
157 Alayna Sparr JR-3 SE Missouri 19:16.67 17:21.01
161 Eden Norris JR-3 Indiana Wesleyan 19:22.51 18:12.76
163 Christiana Britian SO-2 Morehead State 19:23.56 17:03.94
166 Kylie Sailor FR-1 Cornerstone 19:25.86 19:37.52
167 Riley Britton FR-1 Washburn 19:26.05 25:04.21
170 Arabella England FR-1 St. Olaf 19:28.86 22:24.19
172 Kira Larner SO-2 Washington U. 19:31.65 25:11.43
175 Lili Lehnst FR-1 Saginaw Valley 19:34.17 14:17.15
178 Alex Li FR-1 Michigan Tech 19:39.00 22:35.85
189 Annika Sytsma SO-2 Hope 19:55.28 21:30.91
192 Ella Baldwin SR-4 Indiana Wesleyan 19:57.96 21:57.76
193 Norah Wright FR-1 Illinois-Springfield 19:58.74 22:22.59
203 Parker Provost JR-3 Southern Indiana 20:20.51 22:10.36
206 Mara Sweeney JR-3 Ferris State 20:23.15 17:31.91
213 Isabella Wojciechowski SO-2 Olivet Nazarene 20:29.55 17:12.83
215 Maggie Smith FR-1 Southern Indiana 20:41.47 24:37.35
218 Ava Thomas SO-2 Marquette 20:50.39 26:15.50
223 Adi Fuller SO-2 Vincennes 21:18.51 24:43.08
  Audrey Boles   SIU Carbondale DNF DNF
  Bordie Denny   SIU Carbondale DNF DNF
Women's 5000 Meters Section 4
PL NAME YEAR TEAM TIME TIME TIME TIME TIME TIME
83 Marlena Stoklosa SO-2 Lewis 19:17.68 20:55.98 18:12.15 14:11.88 14:11.88 22:23.35
100 Josslyn Gaona FR-1 Illinois-Springfield 12:57.90 13:42.35 18:31.28 19:49.07 19:26.85 19:04.62
104 Irene Williams JR-3 Washington U. 20:12.26 20:34.50 18:32.16 20:12.26 18:21.04 17:14.31
107 Renee Ballard FR-1 Saint Louis 15:23.53 16:08.04 18:32.68 12:58.88 16:19.16 20:01.70
111 Emma Neal JR-3 Maryville (Mo.) 19:32.43 18:36.60 18:36.60 18:58.94 21:24.09 23:38.09
115 Aylin Vega SR-4 Alabama-Huntsville 13:14.75 22:23.24 18:39.36 14:44.30 17:54.59 13:48.33
117 Zoe Nelson JR-3 Missouri Southern 21:51.20 16:37.41 18:40.68 18:18.27 15:30.17 14:22.93
125 Maddie Marschel SO-2 Maryville (Mo.) 22:45.67 22:00.52 18:48.65 18:37.37 17:40.94 14:17.78
126 Marissa Roggensack SO-2 Illinois-Springfield 16:22.45 23:31.57 18:49.25 16:45.04 14:40.82 19:23.13
128 Jadie Chavez FR-1 Illinois-Chicago 22:49.17 19:02.86 18:51.54 16:24.44 17:21.02 21:41.28
129 Maddy Lee FR-1 Washington U. 22:04.25 16:13.38 18:51.83 15:05.47 19:37.11 16:58.65
133 Lex Wilhelm SR-4 Indianapolis 21:09.12 13:35.86 18:53.14 14:43.85 18:30.48 20:23.80
135 Rylee Stephany JR-3 Manchester 20:24.89 15:07.32 18:54.15 17:57.45 13:36.59 15:41.35
137 Autumn Egleston FR-1 Murray State 18:21.23 13:48.76 18:55.28 21:56.93 19:40.70 22:53.69
140 Avery Nason SO-2 Washington U. 18:45.19 15:43.34 18:56.55 22:55.23 15:31.97 13:49.69
141 Krysta Stanko SO-2 Governors State 18:46.03 19:31.53 18:57.40 23:19.01 22:56.26 16:40.92
149 Kaylee O'Sullivan FR-1 Governors State 19:42.17 14:09.32 19:07.73 22:57.28 18:44.78 15:18.19
153 Nicole Vollrath FR-1 St. Francis (Ill.) 14:24.47 21:53.99 19:12.62 22:40.10 24:12.31 19:12.62
158 Jessica Durkee JR-3 Ferris State 21:24.96 16:35.56 19:17.62 16:00.83 16:47.13 23:20.72
160 Patricia Black   Unattached 17:35.67 14:53.26 19:20.07 18:33.67 17:35.67 16:02.86
164 Kinsie Jacques FR-1 Saginaw Valley 19:12.46 19:47.39 19:24.10 17:04.41 19:47.39 23:05.28
165 Josie Kooima FR-1 Wis.-Parkside 13:59.23 20:47.19 19:25.59 14:22.54 15:20.82 24:40.30
168 Hallie Mosier SO-2 Murray State 15:45.15 24:06.90 19:26.85 20:48.53 19:38.52 21:00.20
179 Gianna Konen SR-4 Marquette 17:42.86 21:39.05 19:40.95 14:57.53 16:55.62 14:10.29
183 Lucy Horne FR-1 Alabama-Huntsville 25:24.91 18:16.03 19:51.33 24:01.51 20:03.25 24:13.43
186 Jolie Evans SO-2 Washburn 15:42.87 20:17.37 19:53.50 19:53.50 21:28.98 14:43.19
194 Ahmira Pickett SO-2 Southern Indiana 18:11.96 20:11.95 19:59.95 15:47.96 21:23.95 23:11.95
198 Gretchen Pfeiffer SR-4 Marquette 14:54.73 26:11.82 20:09.09 17:44.00 18:20.28 19:20.73
208 Amyla Eberhart SO-2 Michigan Tech 14:29.21 17:08.37 20:24.24 18:46.30 24:16.85 23:27.88
209 Amber Fusner FR-1 Southern Indiana 22:02.78 25:30.99 20:24.79 26:07.74 20:12.55 23:53.01
  Carmen Solis SO-2 DuPage DNF DNF DNF DNF DNF DNF
  Morgan Gioia SO-2 Lewis DNF DNF DNF DNF DNF DNF
Women's 5000 Meters Section 5
PL NAME YEAR TEAM TIME TIME TIME TIME TIME
79 Layla Fliege JR-3 SE Missouri 18:09.39 19:25.65 15:15.09 13:47.94 16:42.24
90 Lucy Barker FR-1 Alabama-Huntsville 18:20.07 21:16.09 19:48.08 18:09.07 19:04.08
91 Kyra Flesvig JR-3 Lewis 18:21.79 17:59.76 23:30.30 14:41.44 21:40.12
92 Mary Richmond FR-1 Tampa 18:22.02 13:46.52 23:19.57 20:34.27 13:13.46
93 Ava Power FR-1 Missouri Southern 18:23.36 12:52.36 17:28.20 21:41.97 17:17.16
95 Jenna Sweeney FR-1 Saginaw Valley 18:25.48 16:23.88 18:14.43 21:00.25 23:35.02
101 Cordelia Hoover FR-1 SE Missouri 18:31.29 20:44.65 19:37.97 16:40.17 21:29.10
102 Hannah Parker SR-4 Trine 18:31.92 22:03.19 14:05.06 23:54.38 21:07.59
103 Sophie Cotts SO-2 Ohio Wesleyan 18:32.13 22:25.68 21:30.07 18:54.38 20:45.59
108 Isabela Garcia SO-2 Illinois-Chicago 18:32.86 15:57.06 23:22.21 16:08.19 21:30.92
109 Cadence Traylor SO-2 Indiana Wesleyan 18:35.95 18:02.48 17:06.68 17:51.32 20:49.87
114 Jordan Kantola JR-3 Saint Louis 18:38.96 22:56.32 14:10.41 19:46.10 13:03.28
116 Katie Morrison SO-2 Indiana Wesleyan 18:40.21 15:40.98 13:48.96 22:35.46 20:09.83
120 Lillian Buzani SR-4 Illinois-Springfield 18:42.58 15:20.52 19:05.04 22:38.33 17:01.55
121 Gracen Glover JR-3 St. Mary (Kan.) 18:43.99 23:36.23 19:51.43 14:25.48 22:06.31
122 Chesnee Miller FR-1 Manchester 18:44.98 20:14.98 19:52.48 22:07.48 19:41.23
127 Ella Chomic FR-1 Ohio Wesleyan 18:50.92 13:11.65 17:09.14 13:34.27 17:09.14
130 Mya Slavin FR-1 Saint Mary's (Minn.) 18:52.44 20:45.69 13:24.04 15:39.93 22:38.93
132 Dyannara Franco FR-1 St. Francis (Ill.) 18:52.86 21:31.46 13:35.66 18:52.86 22:50.76
138 Danielle Mudd FR-1 Tennessee-Martin 18:55.44 19:06.80 20:37.63 15:19.71 23:16.60
142 Sally Carrington FR-1 Washington U. 18:58.19 13:39.50 22:57.21 21:48.92 21:37.54
143 Hannah Robbins SO-2 IU Indianapolis 18:59.14 21:15.84 23:32.54 17:50.80 19:44.71
146 Macy Iyer JR-3 Washington U. 19:05.01 15:16.01 17:44.86 15:27.46 19:39.36
147 Taylor Allen SO-2 Morehead State 19:07.63 17:01.39 20:16.49 24:28.97 22:22.73
151 Lexi Minard FR-1 St. Ambrose 19:11.12 22:49.84 16:41.48 15:09.39 13:25.79
159 Sarah Williams FR-1 Truman 19:19.86 17:47.08 22:37.04 19:19.86 18:21.87
  Kaitlyn Knoche SO-2 St. Ambrose DNF DNF DNF DNF DNF
  Vanessa Thomas SR-4 Unattached DNF DNF DNF DNF DNF
Women's 5000 Meters Section 6
PL NAME YEAR TEAM TIME TIME
55 Julie Smith SO-2 IU Indianapolis 17:45.72 16:41.78
59 Grace Reed SO-2 Florida Southern 17:49.27 18:10.66
60 Lauren Eftink FR-1 SE Missouri 17:50.62 18:22.74
62 Kayla Vogelsang JR-3 SE Missouri 17:53.86 17:00.17
63 Eleanor Young JR-3 Trine 17:54.67 20:03.63
64 Hailey Nelson JR-3 Missouri Southern 17:55.06 20:25.57
65 Hailey Gerard JR-3 William Woods 17:57.27 21:43.50
66 Clara Gillen FR-1 Saint Louis 17:57.44 12:55.76
67 Viviana Sanfilippo JR-3 Illinois State 17:58.31 12:56.39
69 Devyn O'Daniel FR-1 Arkansas State 17:59.05 17:05.10
70 Molly DeMarzo SO-2 Tampa 17:59.33 23:23.13
73 Kinze Shea FR-1 SIU Edwardsville 18:00.66 14:13.73
74 Cora Stimpson   Unattached 18:03.05 15:31.43
78 Ashley Kachurik SR-4 Elmhurst 18:07.00 20:17.44
81 Mercedes Sarver   Mastodon XC/TF Alumni 18:10.62 17:27.00
86 Alexis Tracy JR-3 Saginaw Valley 18:14.64 14:57.61
87 McKenna Downing JR-3 Ohio Wesleyan 18:15.57 22:16.60
94 Kendall Mann SR-4 DePauw 18:24.21 14:54.41
97 Meredith Campbell FR-1 Morehead State 18:25.88 17:19.53
98 Kylie Smith SR-4 Carthage 18:28.18 18:06.02
106 Sofia Sheldon FR-1 Washington U. 18:32.42 18:10.18
112 Rachel Hockenberry JR-3 Florida Southern 18:37.34 18:26.17
113 Carina Alanis JR-3 IU Indianapolis 18:37.61 22:54.66
131 Ella Colclesser FR-1 IU Indianapolis 18:52.83 22:39.40
136 Emma Leahy JR-3 Illinois-Springfield 18:54.31 18:20.28
152 Hannah Haag SO-2 Olivet Nazarene 19:12.53 24:12.19
199 Micah Peals JR-3 Southern Indiana 20:13.25 24:15.90
  Kyla Weems SO-2 Missouri Southern DNF DNF
Women's 5000 Meters Section 7
PL NAME YEAR TEAM TIME TIME TIME TIME
27 Mary Edwards SO-2 Lewis 15:34.13 17:06.51 19:09.70 17:16.78
28 Emma Hoins SR-4 Northern Iowa 12:50.86 17:07.81 17:28.37 18:40.32
31 Mya Kizer JR-3 South Dakota St. 12:12.28 17:11.38 12:12.28 13:14.17
35 Emma Gonzalez JR-3 South Dakota St. 15:55.09 17:18.14 12:37.85 21:16.92
44 Lilah Genel SO-2 Missouri Southern 14:55.58 17:33.62 16:30.41 16:30.41
47 Mercy Lomuria FR-1 West Alabama 22:53.65 17:36.65 17:47.22 13:33.62
49 Melody Ochana SR-4 Northern Iowa 17:26.40 17:36.97 22:54.07 12:51.59
53 Hanna Brock SR-4 Ferris State 15:01.79 17:40.92 17:09.10 20:20.06
54 Abbey Brackenbury   Unattached 19:42.81 17:45.59 16:20.35 16:09.69
57 Leah Klapatauskas FR-1 Northern Iowa 15:39.54 17:47.65 15:50.21 17:26.30
58 Emma Moore JR-3 Cornerstone 15:08.33 17:48.62 18:10.00 14:14.90
61 Allison Dietz SO-2 Ohio Wesleyan 14:40.04 17:53.21 18:36.14 13:14.18
68 Savannah Lesher JR-3 Maryville (Mo.) 17:48.15 17:58.94 13:29.21 17:05.00
71 Taylor Guthrie JR-3 Tampa 21:35.28 17:59.40 22:29.25 18:31.79
75 Emma Dubie SO-2 Illinois-Chicago 15:33.20 18:05.11 12:39.58 19:53.63
77 Sofia Carlson SR-4 St. Olaf 13:12.86 18:06.11 14:50.61 14:07.17
80 Samantha Roth JR-3 Ohio Northern 13:15.32 18:09.47 12:53.53 15:58.74
82 Becca Diddia SR-4 Loras 21:50.02 18:11.68 21:50.02 16:22.52
84 AnnaSophia Gower SO-2 Ohio Northern 19:39.91 18:12.51 14:55.86 20:01.77
85 Lily Monnett SR-4 DePauw 18:47.28 18:14.44 20:25.78 20:58.61
88 Tori Gerber SR-4 Viterbo 18:16.75 18:16.75 15:32.24 14:37.40
89 Zoe Ward SO-2 Ohio Wesleyan 20:41.64 18:18.79 18:51.76 17:23.85
96 Addison Applegate FR-1 Southern Indiana 16:23.92 18:25.52 13:49.14 17:52.36
99 Kate Madsen SR-4 St. Mary (Kan.) 19:24.86 18:29.39 15:09.70 15:31.89
123 Grace Moeller JR-3 St. Olaf 17:15.47 18:45.51 20:15.55 22:53.13
Women's 5000 Meters Section 8
PL NAME YEAR TEAM TIME TIME
13 Carly Spletzer JR-3 Ball State 12:40.96 16:54.61
16 Ali Gillooly JR-3 Loyola (Ill.) 20:21.41 16:57.84
17 Kate Guderjan JR-3 Lewis 17:29.43 16:58.86
20 Maggie Reed JR-3 Illinois State 19:03.99 17:01.42
22 Kylie Anderson JR-3 Winona State 21:38.34 17:02.31
24 Elizabeth Barrett JR-3 Indiana Wesleyan 22:02.55 17:05.23
25 Lauren Walda JR-3 St. Olaf 12:18.67 17:05.92
29 Skyler Balzer FR-1 Bradley 20:33.53 17:07.94
32 Lorna Rae Pierce FR-1 Pittsburg St. 19:59.69 17:14.21
33 Josie Tyrrell SO-2 St. Mary (Kan.) 18:16.68 17:14.60
34 Sophia Rhein SO-2 Michigan Tech 17:06.70 17:17.07
36 Sidney Swick JR-3 Trine 13:51.62 17:19.52
37 Lauren Iagnemma JR-3 Case Western 14:12.61 17:19.76
38 Carissa Hamilton SO-2 Bradley 16:46.73 17:28.67
41 Cameron Hough SR-4 Southern Indiana 16:28.52 17:31.61
42 Shelby Christman SR-4 Ball State 20:41.41 17:32.04
45 Jenari Lopez 5 Unattached 15:48.63 17:34.03
46 Isabella Frost SO-2 Missouri Southern 14:57.40 17:35.76
48 Kylie Cline FR-1 Butler 14:47.83 17:36.93
50 Jayna Gunter SO-2 Missouri Southern 21:08.91 17:37.42
52 Addi Dewey JR-3 Indiana Wesleyan 18:20.76 17:38.42
56 Mckenna Mazeski SO-2 Butler 19:54.75 17:46.74
105 Sarah Carr   Unattached 15:34.29 18:32.25
Women's 5000 Meters Section 9
PL NAME YEAR TEAM TIME TIME TIME TIME
1 Paige Mullen SO-2 Pittsburg St. 16:50.49 14:15.03 16:11.62 13:26.45
2 Kaylee Beyer   Unattached 20:12.31 19:42.98 16:17.67 15:19.01
3 Mikayla Reed   Unattached 13:20.65 16:38.34 16:28.45 15:48.92
4 Ella Bakken SR-4 Augustana (S.D.) 13:31.17 17:01.47 16:41.44 20:11.75
5 Renate Toldo Senior Unattached 18:12.75 20:33.10 16:42.52 18:12.75
6 Abbi Steiner SO-2 Wis.-Parkside 19:25.32 20:15.55 16:44.58 19:45.41
7 Sarah May SR-4 Lewis 18:35.67 16:45.10 16:45.10 15:34.75
8 Isabel Olson SR-4 Colorado College 14:44.91 17:45.92 16:45.58 19:46.59
9 Grace Jostock SR-4 Loyola (Ill.) 19:43.00 17:31.56 16:51.11 18:32.23
10 Hannah Gibson SO-2 Pittsburg St. 14:10.24 14:10.24 16:52.18 18:53.65
11 Peyton Steffen JR-3 Central College 16:12.86 20:36.34 16:53.39 19:45.67
12 Breanna Burak FR-1 Drake 21:48.70 15:43.48 16:54.49 18:46.09
14 Anna Watson SR-4 U. of Chicago 14:54.54 16:56.52 16:56.52 11:51.57
15 Ashlyn Hillyard SR-4 South Dakota St. 17:27.38 15:35.52 16:56.87 18:28.39
18 Olivia Harp SR-4 Tampa 15:48.45 14:26.86 16:59.83 20:44.20
19 Hannah Moore FR-1 Butler 21:37.04 19:24.27 17:01.29 17:31.93
21 Sydney Rankin SR-4 Colorado College 12:25.93 19:04.44 17:01.82 16:51.61
23 Ellie Hall SO-2 Southern Indiana 19:25.90 19:05.45 17:02.72 13:17.73
26 Nora Holmes JR-3 U. of Chicago 17:57.38 17:16.33 17:06.07 21:43.11
30 Matilda Laidlaw FR-1 Tulsa 17:38.83 14:13.24 17:07.99 20:33.59
39 Amy Morefield FR-1 Tulsa 16:36.37 15:12.47 17:28.81 20:37.60
40 Addy Parrott SR-4 Central College 19:14.56 21:20.52 17:29.60 21:20.52
43 Maddie Haldiman SO-2 Arkansas State 12:58.99 18:35.84 17:32.68 19:49.53
51 Audrey Comastri SR-4 Southern Indiana 21:51.68 20:37.63 17:37.80 19:23.58
72 Amanda Johnson   Wisconsin Runner 14:34.93 14:45.73 18:00.15 13:30.12
76 Zoe Seward SO-2 Southern Indiana 15:33.34 16:05.90 18:05.28 17:54.43
  Ailey Mitchell SR-4 Tulsa DNF DNF DNF DNF